#timestamp,LO_Frequency,Hit 
1501189215.3,286047002.9,N
1501189235.1,286047003.3,N
1501189236.0,286047003.3,N
1501189255.8,286047001.4,N
1501189275.7,286047000.4,N
1501189295.5,286046998.4,N
1501189315.3,286047002.8,N
1501189335.1,286047000.3,N
1501189355.9,286047000.9,N
1501189375.7,286047000.4,N
1501189395.5,286047002.6,N
1501189415.4,286047002.7,N
1501189435.2,286047002.3,N
1501189455.0,286047001.0,N
1501189455.9,286047001.0,N
1501189475.8,286047001.3,N
1501189495.6,286047002.5,N
1501189515.4,286047000.0,N
1501189535.3,286046999.7,N
1501189555.1,286047003.6,N
1501189556.0,286047003.6,N
1501189575.8,286047005.6,N
1501189595.6,286047003.1,N
1501189615.5,286047005.4,N
1501189635.3,286047003.3,N
1501189655.1,286047002.7,N
1501189675.9,286046999.8,N
1501189695.7,286046999.9,N
1501189715.5,286047002.8,N
1501189735.4,286046999.7,N
1501189755.2,286047002.4,N
1501189775.0,286046998.8,N
1501189775.9,286046998.8,N
1501189795.8,286047003.0,N
1501189815.6,286047004.0,N
1501189835.4,286047004.2,N
1501189855.2,286047005.3,N
1501189875.1,286047005.3,N
1501189876.0,286047005.3,N
1501189895.8,286047004.8,N
1501189915.6,286047002.2,N
1501189935.5,286047002.7,N
1501189955.3,286047001.9,N
1501189975.1,286047001.6,N
1501189995.9,286047001.3,N
1501190015.7,286047003.3,N
1501190035.5,286047003.4,N
1501190055.4,286047006.0,N
1501190075.2,286047001.3,N
1501190095.0,286047000.1,N
1501190095.9,286047000.1,N
1501190115.7,286047002.4,N
1501190135.6,286047004.4,N
1501190155.4,286047001.7,N
1501190175.2,286047004.3,N
1501190195.1,286047003.1,N
1501190196.0,286047003.1,N
1501190215.8,286047005.1,N
1501190235.6,286047004.5,N
1501190255.5,286047006.5,N
1501190275.3,286047007.0,N
1501190295.1,286047006.6,N
1501190315.9,286047009.4,N
1501190335.7,286047010.3,N
1501190355.5,286047007.8,N
1501190375.3,286047008.7,N
1501190395.2,286047007.9,N
1501190415.0,286047010.6,N
1501190415.9,286047010.6,N
1501190435.7,286047010.5,N
1501190455.6,286047008.2,N
1501190475.4,286047011.1,N
1501190495.2,286047011.3,N
1501190515.1,286047011.3,N
1501190516.0,286047011.3,N
1501190535.8,286047013.6,N
1501190555.6,286047012.3,N
1501190575.5,286047010.0,N
1501190595.3,286047010.0,N
1501190615.1,286047013.2,N
1501190635.8,286047013.0,N
1501190655.7,286047013.8,N
1501190675.5,286047011.0,N
1501190695.3,286047011.3,N
1501190715.2,286047013.4,N
1501190735.9,286047007.9,N
1501190755.7,286047007.3,N
1501190775.6,286047007.5,N
1501190795.4,286047007.9,N
1501190815.2,286047010.3,N
1501190835.1,286047011.4,N
1501190836.0,286047011.4,N
1501190855.8,286047012.0,N
1501190875.6,286047011.8,N
1501190895.4,286047007.9,N
1501190915.3,286047009.3,N
1501190935.1,286047007.9,N
1501190955.8,286047008.0,N
1501190975.7,286047010.1,N
1501190995.5,286047010.7,N
1501191015.3,286047007.7,N
1501191035.2,286047010.6,N
1501191055.9,286047009.8,N
1501191075.7,286047008.8,N
1501191095.6,286047009.4,N
1501191115.4,286047010.2,N
1501191135.2,286047009.9,N
1501191155.0,286047008.0,N
1501191156.0,286047008.0,N
1501191175.8,286047008.7,N
1501191195.6,286047008.1,N
1501191215.4,286047008.9,N
1501191235.3,286047009.0,N
1501191255.1,286047010.8,N
1501191275.8,286047009.5,N
1501191295.7,286047010.5,N
1501191315.5,286047006.8,N
1501191335.3,286047007.2,N
1501191355.2,286047007.0,N
1501191375.9,286047006.3,N
1501191395.7,286047008.6,N
1501191415.6,286047012.0,N
1501191435.4,286047011.2,N
1501191455.2,286047008.1,N
1501191475.0,286047008.5,N
1501191475.9,286047008.5,N
1501191495.8,286047009.7,N
1501191515.6,286047013.8,N
1501191535.4,286047012.5,N
1501191555.3,286047016.8,N
1501191575.1,286047014.2,N
1501191576.0,286047014.2,N
1501191595.8,286047015.3,N
1501191615.7,286047014.3,N
1501191635.5,286047015.5,N
1501191655.3,286047014.7,N
1501191675.2,286047014.2,N
1501191695.9,286047013.2,N
1501191715.7,286047012.1,N
1501191735.5,286047012.1,N
1501191755.4,286047013.4,N
1501191775.2,286047012.2,N
1501191795.0,286047011.9,N
1501191795.9,286047011.9,N
1501191815.8,286047012.4,N
1501191835.6,286047010.4,N
1501191855.4,286047008.2,N
1501191875.3,286047012.7,N
1501191895.1,286047012.8,N
1501191896.0,286047012.8,N
1501191915.8,286047015.5,N
1501191935.7,286047014.9,N
1501191955.5,286047014.5,N
1501191975.3,286047014.9,N
1501191995.1,286047011.1,N
1501192015.9,286047011.7,N
1501192035.7,286047011.1,N
1501192055.5,286047011.9,N
1501192075.4,286047011.0,N
1501192095.2,286047011.3,N
1501192115.0,286047012.2,N
1501192115.9,286047012.2,N
1501192135.8,286047011.9,N
1501192155.6,286047009.3,N
1501192175.4,286047009.3,N
1501192195.3,286047011.2,N
1501192215.1,286047013.4,N
1501192216.0,286047013.4,N
1501192235.8,286047017.0,N
1501192255.7,286047017.6,N
1501192275.5,286047018.5,N
1501192295.3,286047017.4,N
1501192315.1,286047016.3,N
1501192335.9,286047016.1,N
1501192355.7,286047021.2,N
1501192375.5,286047020.9,N
1501192395.4,286047023.5,Y
1501192415.2,286047007.1,N
1501192435.0,286047005.9,N
1501192435.9,286047005.9,N
1501192455.8,286047002.1,N
1501192475.6,286047000.2,N
1501192495.4,286047004.3,N
1501192515.3,286047005.2,N
1501192535.1,286047006.5,N
1501192536.0,286047006.5,N
1501192555.8,286047004.7,N
1501192575.7,286047005.9,N
1501192595.5,286047005.6,N
1501192615.3,286047006.4,N
1501192635.1,286047007.6,N
1501192655.9,286047006.6,N
1501192675.7,286047008.9,N
1501192695.5,286047006.4,N
1501192715.4,286047010.8,N
1501192735.2,286047006.9,N
1501192755.0,286047005.2,N
1501192755.9,286047005.2,N
1501192775.8,286047005.9,N
1501192795.6,286047006.7,N
